Regional Weather Roundup
Issued by NWS Boston, MA

Current Version | Previous Version | Text Only | Print | Product List | Glossary Off
Versions: 1 2 3 4 5 6 7 8 9 10 11 12 13 14 15 16 17 18 19 20 21 22 23 24 25 26 27 28 29 30 31 32 33 34 35 36 37 38 39 40 41 42 43 44 45 46 47 48 49
918 ASUS41 KBOX 050310 RWRBOX REGIONAL WEATHER ROUNDUP NATIONAL WEATHER SERVICE TAUNTON MA 1100 PM EDT WED MAY 04 2016 NOTE: "FAIR" INDICATES FEW OR NO CLOUDS BELOW 12,000 FEET WITH NO SIGNIFICANT WEATHER AND/OR OBSTRUCTIONS TO VISIBILITY. THE FOLLOWING OBSERVATION LOCATIONS DO NOT REPORT PRESENT WEATHER...PROVINCETOWN... SMITHFIELD...BLOCK ISLAND...KEENE...AND OXFORD. MAZALL-050400- EASTERN MASSACHUSETTS CITY SKY/WX TMP DP RH WIND PRES REMARKS BOSTON LGT RAIN 44 42 93 N13 29.80F BEVERLY LGT RAIN 44 41 89 NE10 29.81F LAWRENCE LGT RAIN 44 41 89 NE12 29.84F BEDFORD LGT RAIN 43 42 97 N8 29.80F BLUE HILL N/A 41 41 100 NE16G24 29.76F NORWOOD CLOUDY 45 42 89 N15 29.78F MARSHFIELD CLOUDY 45 45 100 NE14G20 29.79F PLYMOUTH LGT RAIN 44 43 96 NE16G23 29.75F TAUNTON CLOUDY 46 42 86 VRB5 29.75F NEW BEDFORD CLOUDY 45 43 93 NE15G22 29.72F $$ MAZALL-050400- CAPE COD AND THE ISLANDS CITY SKY/WX TMP DP RH WIND PRES REMARKS FALMOUTH LGT RAIN 45 43 93 NE21G31 29.72F HYANNIS LGT RAIN 44 42 93 NE13G23 29.70F CHATHAM LGT RAIN 44 43 96 NE20G30 29.73F PROVINCETOWN LGT RAIN 44 43 96 NE22 29.76F FOG NANTUCKET CLOUDY 46 43 89 NE23G32 29.69F MARTHAS VNYRD LGT RAIN 46 44 93 NE15 29.70F $$ MAZALL-050400- CENTRAL AND WESTERN MASSACHUSETTS CITY SKY/WX TMP DP RH WIND PRES REMARKS WORCESTER LGT RAIN 39 38 96 NE15G23 29.77F WCI 31 FITCHBURG LGT RAIN 43 40 89 NE7 29.82F ORANGE LGT RAIN 43 39 86 N6 29.80F SPRINGFIELD NOT AVBL WESTFIELD LGT RAIN 45 42 89 NE8 29.80S NORTH ADAMS CLOUDY 47 40 76 E12 29.79F PITTSFIELD CLOUDY 44 39 82 NE8 29.77F $$ RIZALL-050400- RHODE ISLAND CITY SKY/WX TMP DP RH WIND PRES REMARKS PROVIDENCE CLOUDY 45 42 89 N12 29.76F NEWPORT CLOUDY 45 43 93 N15 29.73F BLOCK ISLAND CLOUDY 45 43 93 NE18G30 29.71F SMITHFIELD CLOUDY 43 39 87 NE16 29.76F WESTERLY CLOUDY 45 41 86 N13G23 29.72F $$ CTZALL-050400- CONNECTICUT CITY SKY/WX TMP DP RH WIND PRES REMARKS BRADLEY INTL DRIZZLE 45 41 86 N12 29.79S HARTFORD CLOUDY 47 42 83 N12 29.78F BRIDGEPORT CLOUDY 48 43 82 NE14 29.75F DANBURY CLOUDY 47 41 80 NE7 29.77F GROTON CLOUDY 45 45 100 N14G20 29.72F NEW HAVEN CLOUDY 47 43 86 N8 29.75F CHESTER CLOUDY 45 43 93 N8G16 29.74F MERIDEN CLOUDY 47 42 83 N6 29.77F WILLIMANTIC CLOUDY 45 40 82 NE14 29.74F OXFORD N/A 45 37 76 NE13G20 29.76F $$ MEZ002-015-021-024-NHZ003-005-008-011-012-014-VTZ005-008-050400- NORTHERN NEW ENGLAND CITY SKY/WX TMP DP RH WIND PRES REMARKS PORTLAND ME LGT RAIN 43 40 89 NE13 29.87F BANGOR ME LGT RAIN 48 42 80 NE7 29.91F CONCORD NH LGT RAIN 42 39 89 NE5 29.85F MANCHESTER NH LGT RAIN 43 39 86 N6 29.84F FOG NASHUA NH RAIN 42 41 96 N5 29.84F PORTSMOUTH NH NOT AVBL JAFFREY NH LGT RAIN 41 38 89 VRB3 29.81F KEENE NH CLOUDY 45 39 81 N6 29.83F BURLINGTON VT CLOUDY 48 44 86 CALM 29.83S MT. WASHINGTON NOT AVBL $$ NYZ052-076-050400- EASTERN NEW YORK CITY SKY/WX TMP DP RH WIND PRES REMARKS ALBANY CLOUDY 48 42 80 N3 29.80F NEW YORK CITY CLOUDY 50 45 83 NE14 29.74F $$ ANZALL-050400- MARINE OBSERVATIONS STATION/POSITION TIME TEMP WIND PRES VSBY WAVE AIR SEA DIR/SP/G HT/PER (UTC) (F) (DEG/KT/KT) (MB) (MI) (FT/S) BOSTON BUOY 0250 45 47 40/ 19/ 23 1007.6F 5/ 6 BUZZARDS BAY 0200 45 20/ 23/ 26 1007.1F NANTUCKET SOUND 0250 46 49 30/ 25/ 29 1005.2F 4/ 4 MASS BAY-STELLWA 0204 44 46 N/A 1 7/8 6/ 6 ISLE OF SHOALS 0200 44 50/ 18/ 21 1010.7R S OF BLOCK IS NOT AVBL $$ ......................KEY......................... SKY/WX - SKY CONDITION/PRESENT WEATHER TMP - TEMPERATURE IN FAHRENHEIT DWPT - DEWPOINT IN FAHRENHEIT RH - RELATIVE HUMIDITY IN PERCENT WIND - DIRECTION AND SPEED IN MPH PRES - MEAN SEA LEVEL PRESSURE IN INCHES OF HG WCI - WIND CHILL INDEX VSB - VISIBILITY IN MILES HX - HEAT INDEX TC - TEMPERATURE IN CELSIUS VRB - VARIABLE WIND DIRECTION N/A - NOT AVAILABLE

USA.gov is the U.S. government's official web portal to all federal, state and local government web resources and services.